NOAA 16 DEB, 41074

Orbit data source: Space-Track

NOAA 16 DEB, 41074 is space debris in SSO originally from a launch on Thu, 21 Sep 2000 UTC launched from the Air Force Western Test Range (AFWTR). Debris objects in space refer to the collection of defunct objects orbiting the Earth. Examples of debris include non-operational satellites, rocket bodies, and fragments generated from explosions, collisions, or faulty payload assembly.

Loading next visibility...
Identifier
41074, 2000-055AH
Orbit
SSO
Country
Flag of USUS
Related business
Manufacturer
Unknown
Mission
Spacecraft
Bus & Motor
Unknown
Mass
Unknown
Launch date (UTC)
2000-09-21 (25 years ago)
Launch vehicle
Unknown
Launch site
Air Force Western Test Range (AFWTR)
Object type
Payload
Rocket body
Debris
Shape & HBR
Unknown
Radar Cross Section
Small (<0.1 m²)

Expand to show TLE details & history
Last TLE update: 1 day ago

TLE from 1 day ago
0 NOAA 16 DEB
1 41074U 00055AH  25259.72993268  .00001799  00000-0  50251-3 0  9997
2 41074  98.8797  74.8231 0085061 309.8922  49.4811 14.45464392514025
Epoch: 2025-09-16T17:31Z
TLE epoch observation values (Epoch: 2025-09-16T17:31:06.183Z)
Latitude
-0.00001°
Longitude
176.13129°
Altitude
704.397 km
Speed
7.524 km/s
True Right ascension
04h 59m 17s
True Declination
0° 00' 00"
Sunlit
Object was in daylight at epoch
Visualization orbit readout
Latitude
Unknown
Longitude
Unknown
Altitude
Unknown
Speed
Unknown
Apparent Right ascension
Unknown
Apparent Declination
Unknown
Sunlit
N/A
Visualization observer readout
Local Sidereal Time
16:50:17
Azimuth
Unknown
Elevation
Unknown
Doppler factor
Unknown
Orbital elements
Apogee altitude
798.161 km
Perigee altitude
677.106 km
Semi-major axis
7,115.771 km
Eccentricity
0.00851
Inclination
98.8797°
RAAN
74.8231°
Arg. of periapsis
309.8922°
True anomaly
50.22721°
Mean anomaly
49.4811°
Eccentric anomaly
49.85364°
Mean motion
3.61585 °/min
Orbital period
99.56 mins
BSTAR
0.00050251
Loading maneuver chart data...
Computing Atmospheric mass density...
Loading historical data...
Loading historical data...
Loading historical data...
Loading historical data...
Loading historical data...
Loading historical data...
Loading historical data...

Documentation

Showing up to 5 results
|